Location: Kumla
(59.1265°N, 15.1401°E)
Time: 17:01:10
(UTC+01:00)

A-11 Canister half - Pass Details

Date: 03 December 2023
Orbit: 1526 x 1682 km, 47.3° (Epoch: 24 February)

Event Time Altitude Azimuth Distance (km) Brightness Sun altitude
Rises 17:51:08 0° 178° (S) 4,923 11.8 -19.1°
Reaches altitude 10° 17:56:27 10° 156° (SSE) 3,939 11.0 -19.8°
Maximum altitude 18:00:56 14° 129° (SE) 3,621 10.6 -20.3°
Enters shadow 18:01:38 14° 124° (SE) 3,628 10.5 -20.4°
Drops below altitude 10° 18:05:24 10° 102° (ESE) 3,925 - -20.9°
Sets 18:10:38 0° 80° (E) 4,894 - -21.6°
